sat.trackr.live / text

‹ back to catalog

GLOBAL-31

NORAD 63027 · 2025-033B

PAYLOAD ACTIVE UNKNOWN

§ Identity

Operator
Country
US
Launch date
2025-02-18
Launch site
RLLB
Launch vehicle
Mass (kg)
RCS (m²)

External: N2YO · Heavens-Above · Gunter

§ Orbital elements

Epoch: 2026-09-22T14:02:36.630816Z

Period
93.62 min
Inclination
58.9973°
Eccentricity
0.0014452
Mean motion
15.38159396 rev/d
Perigee alt
441.7 km
Apogee alt
461.4 km
Semi-major
6,829.7 km
B*
2.1110e-4
RAAN
282.5044°
Arg perigee
111.9085°
Mean anomaly
248.3529°
Rev number
8,931

§ Raw data

GLOBAL-311 63027U 25033B   26265.58514619  .00007697  00000+0  21110-3 0  99972 63027  58.9973 282.5044 0014452 111.9085 248.3529 15.38159396 89311

JSON: /api/v1/satellites/63027 · /tle

For live sub-satellite position, see the globe view (requires WebGL).

§ Visibility from observer

Set your observer location to see the next 7 days of passes ≥ 10°. The values pass through the URL so the page stays shareable.

No JS? Fill the form by hand. The geolocation button needs JavaScript.

§ Radio — SatNOGS DB

ModeDescriptionDownlinkUplink
FM Telemetry 400.945 MHz

1 transmitter · refreshed weekly from db.satnogs.org